SCP
0 0 0 0 0 0 0 0 0 0 0 -0 0 0 0 0 0 -0 -0 -0 -0 -0 -0 -0 -0 -0 -0 -0 -0 -0 -0 -0 0 0 0 0 0 0 0 0 0 0 0 0
0 0 0 0 0 0 -0 0 0 -0 -0 0 0 -0 0 0 0 -0 -0 -0 -0 -0 -0 -0 -0 -0 -0 -0 -0 -0 -0 -0 -0 -0 0 0 0 0 0 0 0 0 0 -0
0 0 0 0 0 0 0 0 -0 0 0 -0 0 0 -0 0 0 0 -0 -0 -0 -0 -0 -0 -0 -0 -0 -0 -0 -0 -0 -0 -0 -0 -0 -0 0 0 0 0 0 0 -0 -0
0 0 0 0 0 0 0 0 0 0 0 -0 -0 -0 0 -0 0 0 -0 -0 -0 -0 -0 -0 -0 -0 -0 -0 -0 -0 -0 -0 -0 -0 -0 -0 0 0 0 0 0 0 0 -0
0 0 0 0 0 0 0 0 0 0 0 0 0 0 -0 0 -0 0 0 0 -0 -0 -0 -0 -0 -0 -0 -0 -0 -0 -0 -0 -0 -0 -0 -0 0 0 -0 0 0 0 0 0
0 0 0 0 0 0 0 0 0 0 0 0 0 -0 0 0 0 0 0 0 -0 -0 -0 -0 -0 -0 -0 -0 -0 -0 -0 -0 -0 -0 -0 -0 0 0 0 0 0 0 0 -0
0 0 0 0 0 0 0 0 0 0 0 0 0 -0 0 0 0 0 0 0 0 -0 -0 -0 -0 -0 -0 -0 -0 -0 -0 -0 -0 -0 -0 -0 0 0 -0 0 0 0 0 0
0 0 0 0 0 0 0 0 0 0 0 0 -0 0 0 0 0 0 0 0 -0 -0 -0 -0 -0 -0 -0 -0 -0 -0 -0 -0 -0 -0 -0 -0 -0 -0 -0 0 0 0 0 0
0 0 0 0 0 0 0 0 0 0 0 0 0 -0 -0 0 0 0 0 0 0 -0 -0 0 0 -0 -0 -0 -0 -0 -0 -0 -0 -0 -0 -0 -0 -0 -0 0 0 0 0 0
0 0 0 0 0 0 0 0 0 0 0 0 0 0 0 0 0 0 0 0 0 0 -0 -0 0 0 0 -0 -0 -0 0 0 0 -0 -0 -0 -0 0 0 -0 0 0 0 0
0 0 0 0 0 0 0 0 0 0 0 0 0 0 0 0 0 0 0 0 0 0 0 0 0 0 0 0 -0 0 0 0 0 0 0 0 0 0 0 0 -0 0 0 0
0 0 0 0 0 0 0 0 0 0 0 0 0 0 0 0 0 0 0 0 0 0 0 0 0 0 0 0 -0 0 0 0 0 0 0 0 0 0 0 0 0 0 0 0
0 0 0 0 0 0 0 0 0 0 0 0 0 0 0 0 0 0 0 0 0 0 0 0 0 0 0 0 0 0 0 0 0 0 0 0 0 0 0 0 0 0 0 0
0 0 0 0 0 0 0 0 0 0 0 0 0 0 0 0 0 0 0 0 0 0 0 0 0 0 0 0 0 0 0 0 0 0 0 0 0 0 0 0 0 0 0 0
0 0 0 0 0 0 0 0 0 0 0 0 0 0 0 0 0 0 0 0 0 0 0 0 0 0 0 0 0 0 1 0 0 0 0 0 0 0 0 0 0 0 0 0
0 0 0 0 0 0 0 0 0 0 0 0 0 0 0 0 0 0 0 0 0 0 0 0 0 0 0 0 0 0 0 0 0 0 0 0 0 0 0 0 0 0 0 0
0 0 0 0 0 0 0 0 0 0 0 0 0 0 0 0 0 0 0 0 0 0 0 0 0 0 0 0 1 0 0 0 0 0 0 0 0 0 0 0 0 0 0 0
0 0 0 0 0 0 0 0 0 0 0 0 0 0 0 0 0 0 0 1 1 1 1 1 1 1 0 0 0 0 0 0 0 0 0 0 0 0 0 0 0 0 0 0
0 0 0 0 0 0 0 0 0 0 0 0 0 0 0 0 0 0 0 1 1 1 1 1 0 0 1 0 0 0 0 0 0 1 1 0 0 0 0 0 0 0 0 0
0 0 0 0 0 0 0 0 0 0 0 0 0 1 0 1 1 1 1 0 1 2 2 1 1 0 0 0 0 0 0 0 0 0 0 0 0 0 0 0 0 0 0 0
0 0 0 0 0 0 0 0 0 0 0 0 1 1 1 1 1 1 1 1 1 0 1 0 0 1 1 0 0 0 0 0 0 1 0 0 1 0 0 0 0 0 0 0
-0 -0 0 0 0 0 1 3 1 1 2 1 1 1 1 1 1 2 2 1 0 0 1 1 1 0 0 0 0 0 0 0 0 0 0 0 0 0 0 0 0 0 0 0
0 0 1 1 1 1 1 1 1 0 0 0 1 1 1 1 1 1 1 1 0 0 0 0 0 0 0 0 0 0 0 0 0 0 0 0 0 0 0 0 0 0 0 0
0 0 0 0 1 0 0 0 0 0 0 0 0 0 0 0 1 0 0 0 0 0 0 0 0 0 0 0 0 0 0 0 0 0 0 0 0 0 0 0 0 0 0 0
0 0 0 0 0 0 0 0 0 0 0 0 0 0 0 0 0 0 0 0 0 0 0 0 0 0 0 1 0 0 0 0 0 0 0 0 0 0 0 0 0 0 0 0
0 0 0 0 0 0 0 0 0 0 0 0 0 0 0 0 0 0 0 0 0 0 0 0 0 0 0 0 0 0 0 0 0 0 0 0 0 0 0 0 0 0 0 0
-0 0 0 0 0 0 0 0 0 0 0 0 0 0 0 0 0 0 0 0 0 0 0 0 0 0 0 0 0 0 0 0 0 0 0 0 0 0 0 0 0 0 0 0
Wind_Speed_500mb
52 42 51 45 54 55 55 48 42 35 36 31 22 26 24 29 23 30 45 53 51 47 43 44 42 39 35 31 29 27 26 25 23 24 24 22 23 22 23 23 27 28 28 27
52 51 47 54 52 52 54 51 46 43 34 23 18 23 30 27 30 30 41 54 54 49 46 48 47 44 40 36 34 31 28 26 27 27 27 25 24 24 25 25 23 26 28 24
46 49 52 46 54 55 49 45 43 42 41 35 24 26 27 27 29 30 39 51 59 57 52 50 51 47 44 41 38 35 32 28 30 31 30 29 27 26 26 26 24 22 21 22
39 45 54 42 45 44 48 43 42 39 38 37 37 39 32 37 36 33 36 46 59 59 55 51 51 49 45 43 42 39 35 32 31 33 34 33 31 30 28 27 26 24 20 18
31 37 33 50 34 45 44 43 43 42 39 37 38 38 42 40 39 41 37 42 53 61 58 53 55 53 51 47 45 43 40 37 34 34 37 37 35 34 32 29 28 26 22 19
28 36 49 38 45 31 37 42 43 43 39 35 38 28 23 42 39 36 36 39 43 55 58 57 57 57 55 52 49 47 43 40 36 34 37 39 38 36 33 30 28 25 22 19
30 28 32 34 31 33 40 30 42 56 55 48 32 34 30 28 46 43 39 41 42 52 63 67 64 66 64 57 54 48 44 41 39 37 38 39 43 39 36 33 28 27 25 22
34 31 34 41 28 47 16 4 39 39 47 48 53 47 36 27 16 37 40 44 45 53 60 64 63 66 63 65 55 50 47 45 43 40 37 39 44 42 38 36 33 30 27 24
33 28 11 28 35 29 26 21 17 20 28 31 39 45 43 41 29 32 43 46 47 50 55 58 65 68 66 68 57 54 51 49 47 44 40 39 42 42 40 42 35 34 31 29
27 34 24 16 30 23 32 27 28 24 19 20 36 39 35 42 34 36 48 48 44 52 55 60 66 73 67 56 56 58 56 53 50 49 45 42 39 39 40 42 40 38 36 34
36 27 37 33 24 27 26 27 8 10 20 22 22 27 39 40 35 39 47 44 42 50 56 60 60 65 63 59 59 63 64 60 57 52 54 49 46 44 43 42 44 41 40 38
21 27 15 13 35 27 24 22 31 26 27 20 26 31 33 36 35 40 48 48 44 43 48 54 57 60 64 65 65 69 70 68 64 57 54 50 47 45 47 43 50 48 44 40
36 25 27 27 26 15 20 32 32 29 34 24 25 29 28 29 32 37 40 44 43 42 43 47 54 57 60 67 69 75 77 70 65 61 57 58 53 53 52 59 51 61 56 53
49 41 26 23 30 31 29 33 34 27 23 22 24 24 27 27 31 34 35 37 37 35 37 43 49 53 56 63 73 76 78 74 68 69 62 58 59 57 54 57 61 65 70 65
67 46 33 30 38 30 25 25 27 30 33 30 29 30 24 24 24 26 28 31 32 35 39 41 44 48 50 59 71 78 76 79 76 62 65 60 59 56 56 54 56 55 56 77
69 47 51 50 54 40 36 37 34 37 31 39 35 31 27 26 29 28 28 29 31 35 37 44 44 43 46 53 63 71 76 77 75 73 65 69 63 63 59 59 58 59 66 65
56 50 48 43 54 65 54 41 38 37 37 41 38 32 30 30 30 31 34 30 29 30 34 37 40 39 43 49 58 62 67 71 82 77 68 68 68 64 62 57 57 56 60 68
47 54 52 54 63 57 66 60 53 44 41 41 37 35 35 35 37 37 35 32 29 26 24 23 26 32 39 45 53 55 59 63 69 81 78 67 67 67 61 57 52 51 50 63
49 48 53 58 61 61 60 60 61 53 45 43 37 37 35 33 35 38 35 30 27 22 20 23 32 36 42 42 49 50 51 55 59 71 75 73 68 66 70 65 55 46 51 58
57 56 57 58 64 65 53 48 48 48 49 43 40 39 39 36 32 30 28 23 21 21 32 26 29 29 38 37 52 44 45 47 50 53 66 68 64 66 71 65 56 58 73 57
41 46 56 58 60 59 58 55 55 52 43 45 47 50 43 37 31 25 20 21 16 29 34 36 29 18 24 31 46 44 39 44 45 47 47 64 63 61 58 63 59 49 50 59
55 58 57 61 58 50 29 26 36 36 34 41 46 46 41 37 31 26 19 18 11 16 13 11 13 31 30 42 31 39 34 40 39 42 41 47 49 53 54 59 65 57 60 64
29 50 46 45 43 44 41 43 44 42 43 32 27 30 35 38 30 26 22 18 17 17 12 13 17 20 27 24 24 29 29 29 34 36 37 43 45 47 52 53 68 75 89 81
67 56 53 54 59 57 61 53 55 47 43 38 33 26 8 18 35 32 26 22 17 18 19 18 21 28 22 13 16 20 22 27 31 34 34 43 58 71 67 76 78 80 80 87
64 55 53 52 58 51 56 55 60 55 44 39 30 24 16 4 22 29 23 22 17 15 14 14 18 20 14 16 17 20 15 20 25 31 33 42 46 49 70 81 84 85 79 72
60 52 55 56 50 43 39 35 41 31 22 21 13 7 7 10 22 21 23 23 21 25 14 14 13 11 13 13 14 14 18 25 28 29 31 41 40 55 59 71 80 77 88 97
51 48 46 55 54 46 40 33 27 20 19 12 11 8 4 6 11 15 19 16 17 17 16 13 12 17 15 14 16 17 16 24 28 29 36 42 54 65 72 73 75 88 100 96
Wind_Direction_500mb
227 204 200 205 214 216 213 220 223 228 233 246 215 191 216 185 187 186 192 189 190 189 191 191 189 189 190 184 184 184 180 176 173 161 155 145 143 135 125 122 122 119 113 115
217 228 203 204 211 222 223 222 223 233 243 225 198 240 195 205 173 199 197 196 194 192 192 192 190 189 188 185 184 183 181 179 176 170 164 160 154 148 141 135 130 126 122 122
220 214 227 223 207 212 221 224 225 225 229 245 233 209 230 205 184 205 202 201 198 196 194 192 191 188 188 185 183 184 182 180 176 176 172 169 161 156 151 148 147 141 134 127
212 221 217 226 220 218 219 222 220 229 236 230 233 233 212 229 204 205 207 202 202 197 195 193 190 188 187 186 185 186 186 185 181 179 179 175 170 167 163 158 155 151 144 140
213 207 216 220 221 224 214 224 216 219 221 235 242 223 230 216 218 195 210 205 204 200 196 191 188 188 185 187 188 189 190 190 187 182 182 181 177 177 170 167 166 163 160 157
205 212 209 210 201 213 223 226 215 215 224 227 223 227 222 204 217 210 203 207 201 198 194 193 190 187 187 189 192 193 192 192 190 186 184 184 184 183 179 177 175 172 176 176
220 212 224 208 182 179 215 218 207 216 223 221 223 231 233 214 216 213 204 206 198 194 194 194 190 189 188 191 196 194 191 191 191 189 186 186 187 188 186 183 188 180 186 187
210 201 220 197 202 181 194 169 179 194 214 214 223 225 232 224 203 191 201 198 191 189 194 195 194 193 193 193 195 193 191 190 192 191 186 187 188 188 188 185 189 188 189 188
213 207 207 198 192 170 185 192 190 181 200 207 214 219 219 215 210 213 200 191 191 190 192 195 197 198 198 197 191 192 192 191 190 191 186 192 187 187 186 190 190 190 191 186
207 207 147 165 185 169 209 227 209 195 215 206 221 219 204 204 202 199 190 190 192 191 192 197 200 203 204 196 193 192 193 193 191 191 188 192 190 192 188 191 188 188 189 186
213 220 197 180 172 196 201 212 222 210 240 207 196 202 200 190 203 204 197 193 193 194 198 200 201 204 203 199 195 195 194 193 192 194 193 196 191 193 192 200 189 190 192 189
224 194 229 185 201 222 242 227 232 240 238 224 204 197 194 197 202 202 200 199 198 199 204 204 204 202 202 201 199 196 195 195 196 194 197 197 197 198 196 202 195 192 197 195
269 231 208 236 252 253 242 249 233 216 228 225 213 212 191 196 197 197 197 201 200 204 205 204 206 203 203 203 201 200 198 199 200 196 199 196 200 199 202 199 210 198 197 201
244 250 235 230 250 249 248 247 246 234 231 221 203 199 186 190 179 194 206 205 204 201 198 198 203 207 207 205 204 204 202 200 201 202 203 202 202 203 204 206 207 208 204 203
236 234 239 236 234 242 261 265 271 245 227 228 207 196 195 198 198 211 217 218 210 211 207 202 204 208 208 207 205 205 204 203 205 207 206 207 206 207 208 210 211 211 212 209
228 218 215 217 244 241 238 246 251 252 222 228 217 214 209 219 227 224 217 212 208 209 214 213 209 211 209 206 207 208 208 209 207 206 208 209 208 209 210 211 210 208 212 221
241 228 216 226 237 238 232 237 246 247 230 220 215 216 221 225 225 215 211 207 215 210 211 212 211 210 210 207 206 208 212 213 210 210 210 209 212 211 211 212 213 214 209 215
235 233 233 232 231 234 237 234 236 234 234 221 218 227 229 225 215 208 208 206 206 205 202 201 208 211 212 211 210 208 211 213 216 210 212 213 211 213 210 208 214 216 215 210
225 221 229 233 234 235 239 235 237 234 230 224 228 218 208 202 194 198 198 194 201 201 213 214 219 215 204 211 211 211 212 213 214 214 212 214 216 211 209 204 201 214 217 208
231 231 235 230 228 229 233 234 238 234 226 228 213 197 197 182 178 182 193 202 207 205 208 224 237 221 215 202 212 207 213 214 212 212 212 213 212 210 209 208 202 198 212 190
243 230 232 224 221 220 228 228 224 231 220 209 194 194 187 173 166 169 177 188 230 226 224 232 233 221 224 217 216 204 215 215 212 207 209 209 208 208 206 201 204 193 171 168
230 227 222 213 209 206 176 140 187 185 180 185 188 178 172 148 142 136 133 154 168 174 160 187 189 214 200 214 209 199 214 207 210 208 211 207 205 205 207 202 195 181 167 172
184 179 151 140 130 117 107 103 101 102 113 117 136 150 162 139 142 141 132 123 115 131 130 155 150 151 155 146 186 194 200 202 204 207 199 196 192 188 184 181 182 179 179 184
85 97 105 114 123 117 104 100 101 102 105 100 97 89 49 127 118 130 128 121 121 111 108 118 136 143 128 152 163 175 184 183 189 190 194 188 183 188 201 196 190 189 186 193
71 78 86 85 85 88 97 97 96 95 95 88 80 79 46 219 114 120 125 121 115 108 114 124 135 131 121 136 158 154 170 187 188 189 189 184 186 177 194 190 198 200 197 194
56 61 71 77 78 79 83 94 99 92 92 90 97 80 216 137 116 114 113 106 102 91 95 103 128 120 129 139 140 142 163 186 178 184 182 184 181 186 194 195 202 200 191 179
67 64 69 72 71 80 83 80 97 106 106 123 151 162 170 90 121 109 104 101 101 101 104 107 143 136 118 125 138 149 153 158 167 172 174 179 187 192 197 199 193 186 175 170
Wind_Speed_850mb
52 42 51 45 54 55 55 48 42 35 36 31 22 26 24 29 23 30 45 53 51 47 43 44 42 39 35 31 29 27 26 25 23 24 24 22 23 22 23 23 27 28 28 27
52 51 47 54 52 52 54 51 46 43 34 23 18 23 30 27 30 30 41 54 54 49 46 48 47 44 40 36 34 31 28 26 27 27 27 25 24 24 25 25 23 26 28 24
46 49 52 46 54 55 49 45 43 42 41 35 24 26 27 27 29 30 39 51 59 57 52 50 51 47 44 41 38 35 32 28 30 31 30 29 27 26 26 26 24 22 21 22
39 45 54 42 45 44 48 43 42 39 38 37 37 39 32 37 36 33 36 46 59 59 55 51 51 49 45 43 42 39 35 32 31 33 34 33 31 30 28 27 26 24 20 18
31 37 33 50 34 45 44 43 43 42 39 37 38 38 42 40 39 41 37 42 53 61 58 53 55 53 51 47 45 43 40 37 34 34 37 37 35 34 32 29 28 26 22 19
28 36 49 38 45 31 37 42 43 43 39 35 38 28 23 42 39 36 36 39 43 55 58 57 57 57 55 52 49 47 43 40 36 34 37 39 38 36 33 30 28 25 22 19
30 28 32 34 31 33 40 30 42 56 55 48 32 34 30 28 46 43 39 41 42 52 63 67 64 66 64 57 54 48 44 41 39 37 38 39 43 39 36 33 28 27 25 22
34 31 34 41 28 47 16 4 39 39 47 48 53 47 36 27 16 37 40 44 45 53 60 64 63 66 63 65 55 50 47 45 43 40 37 39 44 42 38 36 33 30 27 24
33 28 11 28 35 29 26 21 17 20 28 31 39 45 43 41 29 32 43 46 47 50 55 58 65 68 66 68 57 54 51 49 47 44 40 39 42 42 40 42 35 34 31 29
27 34 24 16 30 23 32 27 28 24 19 20 36 39 35 42 34 36 48 48 44 52 55 60 66 73 67 56 56 58 56 53 50 49 45 42 39 39 40 42 40 38 36 34
36 27 37 33 24 27 26 27 8 10 20 22 22 27 39 40 35 39 47 44 42 50 56 60 60 65 63 59 59 63 64 60 57 52 54 49 46 44 43 42 44 41 40 38
21 27 15 13 35 27 24 22 31 26 27 20 26 31 33 36 35 40 48 48 44 43 48 54 57 60 64 65 65 69 70 68 64 57 54 50 47 45 47 43 50 48 44 40
36 25 27 27 26 15 20 32 32 29 34 24 25 29 28 29 32 37 40 44 43 42 43 47 54 57 60 67 69 75 77 70 65 61 57 58 53 53 52 59 51 61 56 53
49 41 26 23 30 31 29 33 34 27 23 22 24 24 27 27 31 34 35 37 37 35 37 43 49 53 56 63 73 76 78 74 68 69 62 58 59 57 54 57 61 65 70 65
67 46 33 30 38 30 25 25 27 30 33 30 29 30 24 24 24 26 28 31 32 35 39 41 44 48 50 59 71 78 76 79 76 62 65 60 59 56 56 54 56 55 56 77
69 47 51 50 54 40 36 37 34 37 31 39 35 31 27 26 29 28 28 29 31 35 37 44 44 43 46 53 63 71 76 77 75 73 65 69 63 63 59 59 58 59 66 65
56 50 48 43 54 65 54 41 38 37 37 41 38 32 30 30 30 31 34 30 29 30 34 37 40 39 43 49 58 62 67 71 82 77 68 68 68 64 62 57 57 56 60 68
47 54 52 54 63 57 66 60 53 44 41 41 37 35 35 35 37 37 35 32 29 26 24 23 26 32 39 45 53 55 59 63 69 81 78 67 67 67 61 57 52 51 50 63
49 48 53 58 61 61 60 60 61 53 45 43 37 37 35 33 35 38 35 30 27 22 20 23 32 36 42 42 49 50 51 55 59 71 75 73 68 66 70 65 55 46 51 58
57 56 57 58 64 65 53 48 48 48 49 43 40 39 39 36 32 30 28 23 21 21 32 26 29 29 38 37 52 44 45 47 50 53 66 68 64 66 71 65 56 58 73 57
41 46 56 58 60 59 58 55 55 52 43 45 47 50 43 37 31 25 20 21 16 29 34 36 29 18 24 31 46 44 39 44 45 47 47 64 63 61 58 63 59 49 50 59
55 58 57 61 58 50 29 26 36 36 34 41 46 46 41 37 31 26 19 18 11 16 13 11 13 31 30 42 31 39 34 40 39 42 41 47 49 53 54 59 65 57 60 64
29 50 46 45 43 44 41 43 44 42 43 32 27 30 35 38 30 26 22 18 17 17 12 13 17 20 27 24 24 29 29 29 34 36 37 43 45 47 52 53 68 75 89 81
67 56 53 54 59 57 61 53 55 47 43 38 33 26 8 18 35 32 26 22 17 18 19 18 21 28 22 13 16 20 22 27 31 34 34 43 58 71 67 76 78 80 80 87
64 55 53 52 58 51 56 55 60 55 44 39 30 24 16 4 22 29 23 22 17 15 14 14 18 20 14 16 17 20 15 20 25 31 33 42 46 49 70 81 84 85 79 72
60 52 55 56 50 43 39 35 41 31 22 21 13 7 7 10 22 21 23 23 21 25 14 14 13 11 13 13 14 14 18 25 28 29 31 41 40 55 59 71 80 77 88 97
51 48 46 55 54 46 40 33 27 20 19 12 11 8 4 6 11 15 19 16 17 17 16 13 12 17 15 14 16 17 16 24 28 29 36 42 54 65 72 73 75 88 100 96
Wind_Direction_850mb
227 204 200 205 214 216 213 220 223 228 233 246 215 191 216 185 187 186 192 189 190 189 191 191 189 189 190 184 184 184 180 176 173 161 155 145 143 135 125 122 122 119 113 115
217 228 203 204 211 222 223 222 223 233 243 225 198 240 195 205 173 199 197 196 194 192 192 192 190 189 188 185 184 183 181 179 176 170 164 160 154 148 141 135 130 126 122 122
220 214 227 223 207 212 221 224 225 225 229 245 233 209 230 205 184 205 202 201 198 196 194 192 191 188 188 185 183 184 182 180 176 176 172 169 161 156 151 148 147 141 134 127
212 221 217 226 220 218 219 222 220 229 236 230 233 233 212 229 204 205 207 202 202 197 195 193 190 188 187 186 185 186 186 185 181 179 179 175 170 167 163 158 155 151 144 140
213 207 216 220 221 224 214 224 216 219 221 235 242 223 230 216 218 195 210 205 204 200 196 191 188 188 185 187 188 189 190 190 187 182 182 181 177 177 170 167 166 163 160 157
205 212 209 210 201 213 223 226 215 215 224 227 223 227 222 204 217 210 203 207 201 198 194 193 190 187 187 189 192 193 192 192 190 186 184 184 184 183 179 177 175 172 176 176
220 212 224 208 182 179 215 218 207 216 223 221 223 231 233 214 216 213 204 206 198 194 194 194 190 189 188 191 196 194 191 191 191 189 186 186 187 188 186 183 188 180 186 187
210 201 220 197 202 181 194 169 179 194 214 214 223 225 232 224 203 191 201 198 191 189 194 195 194 193 193 193 195 193 191 190 192 191 186 187 188 188 188 185 189 188 189 188
213 207 207 198 192 170 185 192 190 181 200 207 214 219 219 215 210 213 200 191 191 190 192 195 197 198 198 197 191 192 192 191 190 191 186 192 187 187 186 190 190 190 191 186
207 207 147 165 185 169 209 227 209 195 215 206 221 219 204 204 202 199 190 190 192 191 192 197 200 203 204 196 193 192 193 193 191 191 188 192 190 192 188 191 188 188 189 186
213 220 197 180 172 196 201 212 222 210 240 207 196 202 200 190 203 204 197 193 193 194 198 200 201 204 203 199 195 195 194 193 192 194 193 196 191 193 192 200 189 190 192 189
224 194 229 185 201 222 242 227 232 240 238 224 204 197 194 197 202 202 200 199 198 199 204 204 204 202 202 201 199 196 195 195 196 194 197 197 197 198 196 202 195 192 197 195
269 231 208 236 252 253 242 249 233 216 228 225 213 212 191 196 197 197 197 201 200 204 205 204 206 203 203 203 201 200 198 199 200 196 199 196 200 199 202 199 210 198 197 201
244 250 235 230 250 249 248 247 246 234 231 221 203 199 186 190 179 194 206 205 204 201 198 198 203 207 207 205 204 204 202 200 201 202 203 202 202 203 204 206 207 208 204 203
236 234 239 236 234 242 261 265 271 245 227 228 207 196 195 198 198 211 217 218 210 211 207 202 204 208 208 207 205 205 204 203 205 207 206 207 206 207 208 210 211 211 212 209
228 218 215 217 244 241 238 246 251 252 222 228 217 214 209 219 227 224 217 212 208 209 214 213 209 211 209 206 207 208 208 209 207 206 208 209 208 209 210 211 210 208 212 221
241 228 216 226 237 238 232 237 246 247 230 220 215 216 221 225 225 215 211 207 215 210 211 212 211 210 210 207 206 208 212 213 210 210 210 209 212 211 211 212 213 214 209 215
235 233 233 232 231 234 237 234 236 234 234 221 218 227 229 225 215 208 208 206 206 205 202 201 208 211 212 211 210 208 211 213 216 210 212 213 211 213 210 208 214 216 215 210
225 221 229 233 234 235 239 235 237 234 230 224 228 218 208 202 194 198 198 194 201 201 213 214 219 215 204 211 211 211 212 213 214 214 212 214 216 211 209 204 201 214 217 208
231 231 235 230 228 229 233 234 238 234 226 228 213 197 197 182 178 182 193 202 207 205 208 224 237 221 215 202 212 207 213 214 212 212 212 213 212 210 209 208 202 198 212 190
243 230 232 224 221 220 228 228 224 231 220 209 194 194 187 173 166 169 177 188 230 226 224 232 233 221 224 217 216 204 215 215 212 207 209 209 208 208 206 201 204 193 171 168
230 227 222 213 209 206 176 140 187 185 180 185 188 178 172 148 142 136 133 154 168 174 160 187 189 214 200 214 209 199 214 207 210 208 211 207 205 205 207 202 195 181 167 172
184 179 151 140 130 117 107 103 101 102 113 117 136 150 162 139 142 141 132 123 115 131 130 155 150 151 155 146 186 194 200 202 204 207 199 196 192 188 184 181 182 179 179 184
85 97 105 114 123 117 104 100 101 102 105 100 97 89 49 127 118 130 128 121 121 111 108 118 136 143 128 152 163 175 184 183 189 190 194 188 183 188 201 196 190 189 186 193
71 78 86 85 85 88 97 97 96 95 95 88 80 79 46 219 114 120 125 121 115 108 114 124 135 131 121 136 158 154 170 187 188 189 189 184 186 177 194 190 198 200 197 194
56 61 71 77 78 79 83 94 99 92 92 90 97 80 216 137 116 114 113 106 102 91 95 103 128 120 129 139 140 142 163 186 178 184 182 184 181 186 194 195 202 200 191 179
67 64 69 72 71 80 83 80 97 106 106 123 151 162 170 90 121 109 104 101 101 101 104 107 143 136 118 125 138 149 153 158 167 172 174 179 187 192 197 199 193 186 175 170